EW1558 Weather Reports


Display with metric or nautical units.
time (UTC)temp
F
wind
direction
speed
MPH
gust
MPH
rain 1hr
in
rain 24hr
in
rain mn
in
humidity
%
barometer
mb
20260901160050 82 257 0.0 0.0 0.01 0.22 0.01 89 1012.2
20260901154537 82 306 0.0 0.0 0.01 0.22 0.01 90 1012.4
20260901153039 81 306 0.0 0.0 0.00 0.21 0.00 89 1012.3
20260901151536 81 306 0.0 0.0 0.00 0.21 0.00 88 1012.1
20260901150036 82 306 0.0 0.0 0.00 0.21 0.00 88 1012.1
20260901144533 82 306 0.0 0.0 0.00 0.21 0.00 86 1012.0
20260901143033 82 23 0.0 0.0 0.00 0.21 0.00 86 1012.1
20260901141530 82 301 0.0 0.0 0.00 0.21 0.00 87 1012.1
20260901140028 81 186 0.0 0.0 0.00 0.21 0.00 88 1011.9
20260901134543 80 234 0.0 0.0 0.00 0.21 0.00 89 1012.0
20260901133021 79 246 0.0 0.0 0.00 0.21 0.00 91 1012.1
20260901131517 78 275 0.0 0.0 0.00 0.21 0.00 93 1012.2
20260901130013 76 259 0.0 0.0 0.00 0.21 0.00 96 1012.3
20260901124510 75 258 0.0 0.0 0.00 0.28 0.00 97 1012.1
20260901123008 74 226 0.0 0.0 0.00 0.28 0.00 99 1012.0
20260901121507 74 219 0.0 0.0 0.00 0.28 0.00 99 1011.9
20260901120006 73 219 0.0 0.0 0.00 0.28 0.00 100 1011.8
20260901114506 73 219 0.0 0.0 0.00 0.45 0.00 99 1011.8
20260901113012 73 209 0.0 0.0 0.00 0.45 0.00 99 1011.8
20260901111504 73 209 0.0 0.0 0.00 0.45 0.00 99 1011.6
20260901110002 72 209 0.0 0.0 0.00 0.45 0.00 99 1011.3
20260901104501 72 209 0.0 0.0 0.00 0.45 0.00 99 1011.1
20260901103105 72 209 0.0 0.0 0.00 0.45 0.00 99 1011.2
20260901101615 72 209 0.0 0.0 0.00 0.45 0.00 99 1011.1
20260901101501 72 209 0.0 0.0 0.00 0.45 0.00 99 1011.1
20260901100114 72 209 0.0 0.0 0.00 0.45 0.00 99 1011.2
20260901094559 72 209 0.0 0.0 0.00 0.45 0.00 99 1011.3
20260901093058 72 209 0.0 0.0 0.00 0.45 0.00 99 1011.2
20260901091558 72 209 0.0 0.0 0.00 0.45 0.00 99 1011.1
20260901084559 72 209 0.0 0.0 0.00 0.45 0.00 98 1011.1
20260901083052 72 209 0.0 0.0 0.00 0.45 0.00 98 1010.8
20260901081557 73 209 0.0 0.0 0.00 0.45 0.00 98 1010.8
20260901080053 73 209 0.0 0.0 0.00 0.45 0.00 98 1010.8
20260901074551 73 209 0.0 0.0 0.00 0.45 0.00 98 1010.8
20260901073100 73 209 0.0 0.0 0.00 0.45 0.00 98 1010.9
20260901071553 73 209 0.0 0.0 0.00 0.45 0.00 98 1010.9
20260901070059 72 209 0.0 0.0 0.00 0.45 0.00 95 1010.8
20260901064547 74 209 0.0 0.0 0.00 0.45 0.00 96 1010.8
20260901063047 75 209 0.0 0.0 0.00 0.45 0.00 96 1010.8
20260901061542 75 209 0.0 0.0 0.00 0.45 0.00 96 1010.7
20260901060045 75 209 0.0 0.0 0.00 0.45 0.00 96 1010.7
20260901054540 75 209 0.0 0.0 0.00 0.45 0.00 95 1010.7
20260901053102 75 209 0.0 0.0 0.00 0.45 0.00 95 1010.7
20260901051538 75 209 0.0 0.0 0.00 0.45 0.00 95 1010.7
20260901050037 75 209 0.0 0.0 0.00 0.45 0.00 95 1010.6
20260901044552 75 209 0.0 0.0 0.00 0.45 0.45 95 1010.8
20260901043040 75 209 0.0 0.0 0.00 0.45 0.45 95 1010.8
20260901041535 75 209 0.0 0.0 0.00 0.45 0.45 95 1010.7
20260901040035 75 209 0.0 0.0 0.00 0.45 0.45 96 1010.8
20260901034533 75 209 0.0 0.0 0.00 0.45 0.45 95 1010.9
20260901033041 76 209 0.0 0.0 0.00 0.45 0.45 95 1010.9
20260901031539 76 209 0.0 0.0 0.00 0.45 0.45 95 1010.8
20260901030032 76 209 0.0 0.0 0.00 0.45 0.45 95 1011.0
20260901024531 76 209 0.0 0.0 0.00 0.45 0.45 95 1011.0
20260901023033 76 209 0.0 0.0 0.00 0.45 0.45 96 1011.2
20260901021537 76 209 0.0 0.0 0.00 0.45 0.45 96 1011.1
20260901020054 76 209 0.0 0.0 0.00 0.45 0.45 96 1011.0
20260901014530 75 209 0.0 0.0 0.00 0.45 0.45 94 1010.9
20260901013029 76 209 0.0 0.0 0.00 0.45 0.45 97 1010.9
20260901011537 76 209 0.0 0.0 0.00 0.45 0.45 97 1010.8
20260901010029 76 209 0.0 0.0 0.00 0.45 0.45 98 1010.7
20260901004528 76 209 0.0 0.0 0.00 0.45 0.45 97 1010.5
20260901003030 74 209 0.0 4.0 0.00 0.45 0.45 95 1010.5
20260901001528 78 176 0.0 0.0 0.00 0.45 0.45 93 1010.4
20260901000025 79 176 0.0 0.0 0.00 0.45 0.45 92 1010.2
20260831234526 79 176 0.0 0.0 0.00 0.47 0.45 92 1010.3
20260831233040 80 176 0.0 0.0 0.00 0.47 0.45 90 1010.6
20260831231526 81 176 0.0 0.0 0.00 0.47 0.45 88 1010.6
20260831230024 82 176 0.0 5.0 0.00 0.47 0.45 86 1010.3
20260831224524 82 169 0.0 4.0 0.00 0.47 0.45 88 1010.2
20260831223024 80 193 0.0 5.0 0.00 0.47 0.45 89 1010.0
20260831221524 79 258 3.0 8.0 0.00 0.47 0.45 91 1009.8
20260831220024 78 258 0.0 5.0 0.00 0.47 0.45 93 1009.7
20260831214522 76 178 0.0 3.0 0.02 0.48 0.45 94 1009.7
20260831213030 76 203 0.0 9.0 0.06 0.48 0.45 93 1009.8
20260831211520 75 195 1.0 8.0 0.13 0.48 0.45 94 1009.3
20260831210021 74 260 2.0 10.0 0.20 0.48 0.45 94 1008.5
20260831204517 74 232 1.0 10.0 0.19 0.46 0.43 94 1009.3
20260831203018 75 205 4.0 10.0 0.13 0.40 0.37 90 1010.2
20260831201517 79 86 0.0 3.0 0.06 0.33 0.30 83 1010.9
20260831200022 81 175 0.0 5.0 0.01 0.28 0.25 75 1010.4
20260831194531 82 186 1.0 7.0 0.00 0.36 0.24 71 1010.0
20260831193013 82 210 2.0 9.0 0.00 0.36 0.24 69 1009.8
20260831191512 84 191 2.0 6.0 0.00 0.36 0.24 66 1010.2
20260831190013 85 162 1.0 6.0 0.00 0.36 0.24 65 1010.2
20260831184520 85 163 3.0 8.0 0.00 0.45 0.24 63 1010.2
20260831183010 86 316 2.0 7.0 0.00 0.45 0.24 63 1010.1
20260831181515 85 222 2.0 10.0 0.00 0.45 0.24 66 1010.1
20260831180004 84 301 3.0 10.0 0.00 0.45 0.24 66 1010.3
20260831174610 82 247 3.0 12.0 0.00 0.45 0.24 67 1010.4
20260831174503 82 273 4.0 12.0 0.00 0.45 0.24 68 1010.4
20260831173104 82 200 4.0 9.0 0.00 0.45 0.24 69 1010.5
20260831171554 81 210 5.0 12.0 0.00 0.45 0.24 69 1010.9
20260831170057 81 221 4.0 7.0 0.00 0.45 0.24 70 1011.2
20260831164553 80 247 3.0 11.0 0.00 0.45 0.24 72 1011.2
20260831163051 79 238 4.0 14.0 0.00 0.45 0.24 75 1011.4
20260831161541 77 229 6.0 11.0 0.00 0.45 0.24 78 1011.6